Find Starlink 34782

NORAD ID: 65358 Int'l Des: 2025-190 Owner: SPXS Country: US Constellation: starlink operational
LEOCIRCULAR

リアルタイム位置

3D地球を読み込み中...

Starlink 34782について

説明を読み込み中...

次回通過

Passes for default location (London). Set your location on the main map for personalized predictions.

高度履歴

Loading altitude history...

軌道要素

1 65358U 25190H 26104.44135257 .00014356 00000-0 49579-3 0 9994
2 65358 53.1627 1.7828 0000890 117.8997 242.2094 15.30206632 35232
Epoch: Apr 14, 2026 • Age: 13 hours

現在のステータス

高度 476.5 km
速度 7.63 km/s
衛星直下点 28.58°N, 169.25°W
打ち上げ日 Aug 28, 2025
運用期間 0.6 years
タイプ internet

技術仕様

分類 Payload
質量 575.00 kg
乾燥質量 530.00 kg
総質量 575.00 kg
長さ 0.30 m
直径 4.10 m
スパン 29.00 m
形状 Box + pan
製造者 SPXS
バスタイプ Starlink V2MO
フェーズステータス In Orbit
所有者/国 SPXS/US

Most Searched